Satellite-Ground Cal/Val Region Overpasses Predictions

Prediction of Satellite NPP Overpassing Cal/Val Region: PacNW

Region Location: (Latitude: 10.00, Longitude: 139.50) to (Latitude: 22.70, Longitude: 165.60).

Table of predicted overpasses for the next 14.0 days since TLE Epoch: 9/2/2020
Interval Starting Time Starting Location Ending Time Ending Location
1 09/02/2020 03:36:31 ( 10.06, 145.62) 09/02/2020 03:40:06 ( 22.68, 142.61)
2 09/02/2020 14:30:02 ( 11.64, 165.60) 09/02/2020 14:30:29 ( 10.05, 165.23)
3 09/02/2020 16:08:24 ( 22.67, 142.86) 09/02/2020 16:11:59 ( 10.05, 139.86)
4 09/03/2020 03:17:29 ( 10.06, 150.37) 09/03/2020 03:21:04 ( 22.68, 147.37)
5 09/03/2020 15:49:22 ( 22.66, 147.62) 09/03/2020 15:52:57 ( 10.04, 144.61)
6 09/04/2020 02:58:27 ( 10.00, 155.14) 09/04/2020 03:02:03 ( 22.68, 152.12)
7 09/04/2020 15:30:21 ( 22.66, 152.38) 09/04/2020 15:33:56 ( 10.04, 149.37)
8 09/05/2020 02:39:26 ( 10.00, 159.90) 09/05/2020 02:43:02 ( 22.69, 156.88)
9 09/05/2020 15:11:19 ( 22.66, 157.13) 09/05/2020 15:14:54 ( 10.04, 154.13)
10 09/06/2020 02:20:24 ( 10.01, 164.66) 09/06/2020 02:24:00 ( 22.69, 161.64)
11 09/06/2020 14:52:18 ( 22.66, 161.89) 09/06/2020 14:55:53 ( 10.04, 158.88)
12 09/07/2020 03:42:53 ( 10.02, 144.04) 09/07/2020 03:46:29 ( 22.70, 141.02)
13 09/07/2020 14:34:29 ( 18.37, 165.59) 09/07/2020 14:36:51 ( 10.03, 163.64)
14 09/07/2020 16:14:46 ( 22.65, 141.27) 09/07/2020 16:16:50 ( 15.37, 139.50)
15 09/08/2020 03:23:51 ( 10.02, 148.79) 09/08/2020 03:27:26 ( 22.64, 145.79)
16 09/08/2020 15:55:45 ( 22.64, 146.03) 09/08/2020 15:59:20 ( 10.03, 143.02)
17 09/09/2020 03:04:50 ( 10.02, 153.55) 09/09/2020 03:08:25 ( 22.65, 150.55)
18 09/09/2020 15:36:42 ( 22.70, 150.80) 09/09/2020 15:40:18 ( 10.02, 147.78)
19 09/10/2020 02:45:48 ( 10.03, 158.31) 09/10/2020 02:49:23 ( 22.65, 155.30)
20 09/10/2020 15:17:41 ( 22.69, 155.55) 09/10/2020 15:21:17 ( 10.02, 152.53)
21 09/11/2020 02:26:47 ( 10.04, 163.06) 09/11/2020 02:30:22 ( 22.66, 160.06)
22 09/11/2020 14:58:39 ( 22.69, 160.31) 09/11/2020 15:02:15 ( 10.01, 157.29)
23 09/12/2020 02:10:26 ( 19.50, 165.60) 09/12/2020 02:11:20 ( 22.66, 164.81)
24 09/12/2020 03:49:15 ( 10.05, 142.44) 09/12/2020 03:52:45 ( 22.38, 139.51)
25 09/12/2020 14:39:38 ( 22.69, 165.07) 09/12/2020 14:43:14 ( 10.01, 162.05)
26 09/12/2020 16:21:08 ( 22.68, 139.69) 09/12/2020 16:21:20 ( 21.98, 139.51)
27 09/13/2020 03:30:14 ( 10.05, 147.20) 09/13/2020 03:33:49 ( 22.68, 144.19)
28 09/13/2020 16:02:07 ( 22.68, 144.45) 09/13/2020 16:05:42 ( 10.06, 141.44)
29 09/14/2020 03:11:11 ( 10.00, 151.97) 09/14/2020 03:14:47 ( 22.68, 148.95)
30 09/14/2020 15:43:05 ( 22.67, 149.20) 09/14/2020 15:46:40 ( 10.05, 146.20)
31 09/15/2020 02:52:10 ( 10.01, 156.73) 09/15/2020 02:55:46 ( 22.69, 153.71)
